Weather History for KLWS - November, 2013

Change the Weather History Date:

Friday, November 15, 2013

  Actual Average Record
Temperature  
Mean Temperature 41 °F 41 °F  
Max Temperature 47 °F 48 °F 63 °F (1953)
Min Temperature 34 °F 34 °F -3 °F (1955)
Degree Days  
Heating Degree Days 24 24  
Month to date heating degree days 336 320  
Since 1 July heating degree days 904 845  
Cooling Degree Days 0 0  
Month to date cooling degree days 0 0  
Year to date cooling degree days 1178 807  
Moisture  
Dew Point 34 °F    
Average Humidity 79    
Maximum Humidity 100    
Minimum Humidity 58    
Precipitation  
Precipitation 0.19 in 0.04 in 0.94 in (1926)
Month to date precipitation 0.66 0.61  
Year to date precipitation 8.71 10.77  
Snow  
Snow 0.00 in 0.10 in 3.00 in (1958)
Month to date snowfall T 0.6  
Since 1 July snowfall T 0.6  
Since 1 September snowfall T 0.6  
Snow Depth 0.00 in    
Sea Level Pressure  
Sea Level Pressure 29.80 in    
Wind  
Wind Speed 3 mph (SSW)    
Max Wind Speed 17 mph    
Max Gust Speed 23 mph    
Visibility 4 miles    
Events Fog , Rain    
T = Trace of Precipitation, MM = Missing Value Source: NWS Daily Summary

Daily Weather History Graph

Daily Weather History Graph

Search for Another Location

Airport or City:

Trip Planner

Search our weather history database for the weather conditions in past years. The results will help you decide how hot, cold, wet, or windy it might be!

Date:

Astronomy

Nov. 15, 2013 Rise Set
Actual Time 6:50 AM PST 4:14 PM PST
Civil Twilight 6:17 AM PST 4:47 PM PST
Nautical Twilight 5:40 AM PST 5:24 PM PST
Astronomical Twilight 5:05 AM PST 5:59 PM PST
Moon 3:19 PM PST (11/15) 4:45 AM PST (11/15)
Length of Visible Light 10h 30m
Length of Day
9h 24m
Waxing Gibbous, 97% of the Moon is Illuminated
Nov 15
Waxing Gibbous
Nov 17
Full
Nov 25
Last Quarter
Dec 2
New
Dec 9
First Quarter

Hourly Weather History & Observations

Time (PST) Temp. Windchill Dew Point Humidity Pressure Visibility Wind Dir Wind Speed Gust Speed Precip Events Conditions
12:19 AM 35.6 °F - 33.8 °F 93% 29.95 in 2.5 mi Calm Calm - N/A   Scattered Clouds
12:24 AM 35.6 °F - 33.8 °F 93% 29.95 in 4.0 mi Calm Calm - N/A   Scattered Clouds
12:34 AM 35.6 °F - 33.8 °F 93% 29.95 in 1.8 mi Calm Calm - N/A   Mostly Cloudy
12:41 AM 37.4 °F - 33.8 °F 87% 29.94 in 1.2 mi Calm Calm - N/A   Overcast
12:54 AM 35.6 °F - 33.8 °F 93% 29.94 in 0.5 mi Calm Calm - N/A Fog Fog
12:56 AM 36.0 °F - 34.0 °F 93% 29.98 in 0.5 mi Calm Calm - N/A Fog Fog
1:04 AM 35.6 °F - 35.6 °F 100% 29.94 in 0.2 mi Calm Calm - N/A Fog Fog
1:18 AM 35.6 °F - 33.8 °F 93% 29.94 in 0.2 mi Calm Calm - N/A Fog Fog
1:25 AM 35.6 °F 32.8 °F 33.8 °F 93% 29.94 in 0.2 mi South 3.5 mph - N/A Fog Fog
1:30 AM 33.8 °F 30.8 °F 33.8 °F 100% 29.94 in 1.0 mi SSW 3.5 mph - N/A   Overcast
1:33 AM 33.8 °F 30.8 °F 33.8 °F 100% 29.94 in 4.0 mi South 3.5 mph - N/A   Overcast
1:56 AM 34.0 °F - 32.0 °F 92% 29.96 in 9.0 mi Calm Calm - N/A   Overcast
2:36 AM 35.6 °F - 33.8 °F 93% 29.92 in 8.0 mi Calm Calm - N/A   Overcast
2:44 AM 33.8 °F - 33.8 °F 100% 29.92 in 3.0 mi Calm Calm - N/A   Overcast
2:56 AM 35.1 °F - 33.1 °F 92% 29.95 in 4.0 mi Calm Calm - N/A   Overcast
3:11 AM 35.6 °F - 33.8 °F 93% 29.92 in 1.8 mi Calm Calm - N/A   Overcast
3:15 AM 35.6 °F - 33.8 °F 93% 29.92 in 1.2 mi Calm Calm - N/A   Overcast
3:22 AM 35.6 °F 32.8 °F 33.8 °F 93% 29.92 in 0.2 mi NW 3.5 mph - N/A Fog Fog
3:37 AM 35.6 °F - 33.8 °F 93% 29.91 in 0.2 mi Calm Calm - N/A Fog Fog
3:52 AM 35.6 °F 32.8 °F 33.8 °F 93% 29.91 in 0.2 mi SSE 3.5 mph - N/A Fog Fog
3:56 AM 34.0 °F - 33.1 °F 96% 29.94 in 0.2 mi Calm Calm - N/A Fog Fog
4:03 AM 33.8 °F - 32.0 °F 93% 29.91 in 1.0 mi Calm Calm - N/A   Overcast
4:06 AM 33.8 °F - 32.0 °F 93% 29.91 in 1.5 mi Calm Calm - N/A   Overcast
4:14 AM 33.8 °F 30.8 °F 32.0 °F 93% 29.90 in 1.0 mi SSE 3.5 mph - N/A   Overcast
4:19 AM 33.8 °F 30.8 °F 32.0 °F 93% 29.91 in 2.0 mi SSE 3.5 mph - N/A   Overcast
4:26 AM 33.8 °F - 32.0 °F 93% 29.90 in 8.0 mi Calm Calm - N/A   Overcast
4:41 AM 33.8 °F - 32.0 °F 93% 29.90 in 8.0 mi Calm Calm - N/A   Overcast
4:56 AM 35.1 °F - 33.1 °F 92% 29.93 in 7.0 mi Calm Calm - N/A   Overcast
5:16 AM 35.6 °F 29.9 °F 33.8 °F 93% 29.88 in 5.0 mi SE 6.9 mph - N/A   Overcast
5:35 AM 33.8 °F - 32.0 °F 93% 29.88 in 6.0 mi Calm Calm - N/A   Overcast
5:56 AM 35.1 °F - 33.1 °F 92% 29.91 in 9.0 mi Calm Calm - N/A   Overcast
6:36 AM 35.6 °F - 32.0 °F 87% 29.87 in 6.0 mi Calm Calm - N/A   Mostly Cloudy
6:43 AM 35.6 °F - 32.0 °F 87% 29.87 in 0.8 mi Calm Calm - N/A   Mostly Cloudy
6:56 AM 34.0 °F - 33.1 °F 96% 29.90 in 0.8 mi Calm Calm - N/A   Overcast
6:58 AM 35.6 °F - 33.8 °F 93% 29.86 in 0.2 mi Calm Calm - N/A   Mostly Cloudy
7:25 AM 35.6 °F - 33.8 °F 93% 29.85 in 0.1 mi Calm Calm - N/A Fog Fog
7:56 AM 35.1 °F - 34.0 °F 96% 29.88 in 0.1 mi Calm Calm - N/A Fog Fog
8:56 AM 35.1 °F 32.2 °F 34.0 °F 96% 29.86 in 0.1 mi WNW 3.5 mph - 0.00 in Fog Fog
9:56 AM 36.0 °F 31.1 °F 35.1 °F 97% 29.85 in 0.1 mi SSE 5.8 mph - N/A Fog Fog
10:33 AM 37.4 °F - 35.6 °F 93% 29.79 in 1.0 mi Calm Calm - N/A   Overcast
10:45 AM 37.4 °F - 35.6 °F 93% 29.78 in 2.0 mi Calm Calm - N/A   Overcast
10:56 AM 39.0 °F - 36.0 °F 89% 29.79 in 2.0 mi Calm Calm - N/A   Overcast
11:23 AM 39.2 °F 37.0 °F 37.4 °F 93% 29.75 in 1.5 mi NNW 3.5 mph - N/A   Mostly Cloudy
11:40 AM 41.0 °F 38.0 °F 37.4 °F 87% 29.75 in 3.0 mi NW 4.6 mph - N/A   Partly Cloudy
11:56 AM 43.0 °F 41.3 °F 37.9 °F 82% 29.76 in 3.0 mi North 3.5 mph - N/A   Haze
12:56 PM 43.0 °F - 37.0 °F 80% 29.71 in 6.0 mi Calm Calm - N/A   Haze
1:56 PM 46.0 °F - 34.0 °F 63% 29.69 in 9.0 mi Calm Calm - N/A   Overcast
2:56 PM 46.0 °F 44.8 °F 32.0 °F 58% 29.66 in 10.0 mi Variable 3.5 mph - N/A   Overcast
3:56 PM 44.1 °F 41.5 °F 32.0 °F 63% 29.67 in 8.0 mi WNW 4.6 mph - 0.00 in Rain Light Rain
4:56 PM 42.1 °F 39.2 °F 35.1 °F 76% 29.65 in 10.0 mi East 4.6 mph - 0.01 in Rain Light Rain
5:40 PM 42.8 °F - 35.6 °F 76% 29.61 in 6.0 mi Calm Calm - 0.01 in Rain Light Rain
5:56 PM 42.1 °F - 33.1 °F 70% 29.63 in 7.0 mi Calm Calm - 0.03 in Rain Light Rain
6:48 PM 39.2 °F 34.2 °F 35.6 °F 87% 29.57 in 10.0 mi North 6.9 mph - 0.01 in Rain Light Rain
6:56 PM 39.9 °F 36.7 °F 37.0 °F 89% 29.60 in 10.0 mi North 4.6 mph - 0.02 in Rain Light Rain
7:56 PM 39.9 °F 36.7 °F 34.0 °F 79% 29.57 in 9.0 mi West 4.6 mph - 0.03 in Rain Light Rain
8:56 PM 41.0 °F 36.4 °F 35.1 °F 79% 29.54 in 8.0 mi SSW 6.9 mph - 0.03 in Rain Light Rain
9:56 PM 39.0 °F 36.8 °F 35.1 °F 86% 29.50 in 10.0 mi NNE 3.5 mph - 0.03 in Rain Light Rain
10:46 PM 42.8 °F 35.4 °F 33.8 °F 70% 29.43 in 10.0 mi SSW 15.0 mph 21.9 mph 0.02 in Rain Light Rain
10:56 PM 41.0 °F 34.3 °F 33.1 °F 73% 29.45 in 10.0 mi South 11.5 mph - 0.02 in Rain Light Rain
11:39 PM 41.0 °F 33.5 °F 33.8 °F 76% 29.39 in 10.0 mi SSW 13.8 mph 20.7 mph 0.02 in Rain Light Rain
11:56 PM 42.1 °F 34.2 °F 33.1 °F 70% 29.40 in 10.0 mi SSW 16.1 mph 23.0 mph 0.02 in Rain Light Rain